NK0V Weather Reports


Display with metric or nautical units.
time (UTC)temp
F
wind
direction
speed
MPH
gust
MPH
rain 1hr
in
rain 24hr
in
rain mn
in
humidity
%
barometer
mb
20260505111600 32 295 3.0 7.0 0.00 0.00 0.00 73 1009.7
20260505111059 32 317 2.0 6.0 0.00 0.00 0.00 73 1009.6
20260505110557 32 312 2.0 6.0 0.00 0.00 0.00 73 1009.6
20260505102058 32 313 2.0 7.0 0.00 0.00 0.00 71 1009.4
20260505101601 33 319 2.0 7.0 0.00 0.00 0.00 71 1009.4
20260505101058 33 296 2.0 4.0 0.00 0.00 0.00 71 1009.5
20260505100559 33 310 2.0 4.0 0.00 0.00 0.00 71 1009.5
20260505100100 33 289 1.0 4.0 0.00 0.00 0.00 71 1009.5
20260505095558 33 296 2.0 4.0 0.00 0.00 0.00 71 1009.5
20260505095100 33 294 2.0 4.0 0.00 0.00 0.00 71 1009.4
20260505094602 33 293 2.0 5.0 0.00 0.00 0.00 70 1009.5
20260505094100 34 286 1.0 5.0 0.00 0.00 0.00 70 1009.4
20260505093558 34 308 2.0 4.0 0.00 0.00 0.00 70 1009.4
20260505093057 34 308 1.0 5.0 0.00 0.00 0.00 70 1009.4
20260505092557 34 300 2.0 5.0 0.00 0.00 0.00 70 1009.4
20260505092057 34 298 2.0 5.0 0.00 0.00 0.00 70 1009.4
20260505091602 34 284 2.0 5.0 0.00 0.00 0.00 70 1009.4
20260505091057 34 306 2.0 8.0 0.00 0.00 0.00 70 1009.3
20260505090558 34 302 2.0 8.0 0.00 0.00 0.00 70 1009.1
20260505090059 34 286 2.0 6.0 0.00 0.00 0.00 70 1009.1
20260505085600 34 298 2.0 6.0 0.00 0.00 0.00 69 1009.1
20260505085055 34 318 3.0 7.0 0.00 0.00 0.00 69 1009.1
20260505084606 35 340 2.0 7.0 0.00 0.00 0.00 69 1009.1
20260505084058 35 296 2.0 5.0 0.00 0.00 0.00 68 1009.2
20260505083603 35 309 2.0 4.0 0.00 0.00 0.00 68 1009.2
20260505083106 35 325 2.0 5.0 0.00 0.00 0.00 68 1009.2
20260505082558 35 294 2.0 5.0 0.00 0.00 0.00 68 1009.2
20260505082058 35 275 2.0 4.0 0.00 0.00 0.00 68 1009.2
20260505081603 36 283 2.0 6.0 0.00 0.00 0.00 67 1009.2
20260505081059 36 281 2.0 6.0 0.00 0.00 0.00 67 1009.2
20260505080558 36 294 2.0 4.0 0.00 0.00 0.00 67 1009.2
20260505080058 36 302 2.0 4.0 0.00 0.00 0.00 67 1009.1
20260505075558 36 279 2.0 6.0 0.00 0.00 0.00 66 1009.0
20260505075058 36 277 2.0 6.0 0.00 0.00 0.00 66 1009.0
20260505074602 36 287 1.0 5.0 0.00 0.00 0.00 66 1009.0
20260505074058 37 285 2.0 6.0 0.00 0.00 0.00 66 1009.0
20260505073558 37 290 2.0 6.0 0.00 0.00 0.00 65 1009.0
20260505073058 37 306 2.0 6.0 0.00 0.00 0.00 65 1009.0
20260505072602 37 293 2.0 6.0 0.00 0.00 0.00 65 1009.0
20260505072100 37 312 2.0 7.0 0.00 0.00 0.00 64 1009.0
20260505071600 37 286 2.0 7.0 0.00 0.00 0.00 64 1009.0
20260505071059 37 288 3.0 7.0 0.00 0.00 0.00 64 1009.0
20260505070601 37 296 2.0 6.0 0.00 0.00 0.00 64 1009.0
20260505070106 37 294 2.0 6.0 0.00 0.00 0.00 64 1009.0
20260505065559 37 291 2.0 6.0 0.00 0.00 0.00 63 1009.1
20260505065058 37 288 2.0 4.0 0.00 0.00 0.00 63 1009.1
20260505064558 37 289 2.0 4.0 0.00 0.00 0.00 63 1009.1
20260505064058 37 280 2.0 4.0 0.00 0.00 0.00 63 1009.2
20260505063558 37 286 2.0 4.0 0.00 0.00 0.00 62 1009.2
20260505063057 37 284 2.0 4.0 0.00 0.00 0.00 62 1009.2
20260505062602 37 275 2.0 4.0 0.00 0.00 0.00 62 1009.3
20260505062101 37 281 2.0 5.0 0.00 0.00 0.00 62 1009.3
20260505061627 37 266 2.0 5.0 0.00 0.00 0.00 62 1009.3
20260505061100 37 295 2.0 5.0 0.00 0.00 0.00 62 1009.2
20260505060601 37 295 2.0 4.0 0.00 0.00 0.00 61 1009.1
20260505055600 37 300 2.0 5.0 0.00 0.00 0.00 60 1009.1
20260505055059 37 294 2.0 5.0 0.00 0.00 0.00 59 1009.1
20260505054557 37 313 1.0 3.0 0.00 0.00 0.00 59 1009.0
20260505054058 37 301 1.0 3.0 0.00 0.00 0.00 59 1009.0
20260505053558 38 292 1.0 4.0 0.00 0.00 0.00 59 1009.0
20260505053059 38 304 1.0 4.0 0.00 0.00 0.00 59 1009.0
20260505052558 38 0 1.0 3.0 0.00 0.00 0.00 59 1009.0
20260505052100 38 278 2.0 3.0 0.00 0.00 0.00 59 1009.0
20260505051558 38 272 2.0 3.0 0.00 0.00 0.00 59 1009.0
20260505051058 38 277 2.0 3.0 0.00 0.00 0.00 58 1008.9
20260505050557 38 273 1.0 2.0 0.00 0.00 0.00 57 1008.9
20260505041604 40 0 0.0 1.0 0.00 0.00 0.00 53 1008.8
20260505041058 40 0 0.0 1.0 0.00 0.00 0.00 53 1008.9
20260505040558 40 0 0.0 1.0 0.00 0.00 0.00 53 1008.9
20260505040104 41 0 0.0 1.0 0.00 0.00 0.00 53 1008.9
20260505035558 41 325 0.0 2.0 0.00 0.00 0.00 52 1008.8
20260505035057 41 0 0.0 2.0 0.00 0.00 0.00 52 1008.8
20260505034602 42 0 0.0 2.0 0.00 0.00 0.00 53 1008.8
20260505034055 42 0 0.0 2.0 0.00 0.00 0.00 53 1008.8
20260505033559 42 336 0.0 2.0 0.00 0.00 0.00 52 1008.8
20260505033103 42 0 0.0 2.0 0.00 0.00 0.00 51 1008.7
20260505032559 43 336 0.0 3.0 0.00 0.00 0.00 51 1008.7
20260505032058 43 337 0.0 4.0 0.00 0.00 0.00 51 1008.7
20260505031558 43 326 1.0 4.0 0.00 0.00 0.00 51 1008.7
20260505031058 43 0 0.0 4.0 0.00 0.00 0.00 50 1008.7
20260505030558 44 319 0.0 3.0 0.00 0.00 0.00 49 1008.7
20260505030057 44 347 0.0 4.0 0.00 0.00 0.00 49 1008.6
20260505025558 44 323 0.0 4.0 0.00 0.00 0.00 49 1008.6
20260505025057 45 343 1.0 4.0 0.00 0.00 0.00 48 1008.5
20260505024558 45 5 1.0 4.0 0.00 0.00 0.00 48 1008.4
20260505024057 45 355 0.0 4.0 0.00 0.00 0.00 47 1008.4
20260505023555 46 5 1.0 4.0 0.00 0.00 0.00 47 1008.3
20260505023058 46 346 0.0 4.0 0.00 0.00 0.00 46 1008.2
20260505022559 46 0 0.0 4.0 0.00 0.00 0.00 46 1008.2
20260505022057 46 5 1.0 4.0 0.00 0.00 0.00 46 1008.1
20260505021602 47 331 1.0 7.0 0.00 0.00 0.00 45 1008.0
20260505021059 47 330 1.0 7.0 0.00 0.00 0.00 45 1008.0
20260505020600 47 344 3.0 8.0 0.00 0.00 0.00 44 1008.0
20260505020057 48 313 1.0 8.0 0.00 0.00 0.00 44 1007.9
20260505015558 48 306 2.0 8.0 0.00 0.00 0.00 43 1007.8
20260505015058 48 302 2.0 10.0 0.00 0.00 0.00 43 1007.7
20260505014556 48 317 3.0 13.0 0.00 0.00 0.00 42 1007.7
20260505014058 49 317 4.0 13.0 0.00 0.00 0.00 42 1007.6
20260505013558 49 348 5.0 13.0 0.00 0.00 0.00 42 1007.5
20260505013057 49 323 5.0 11.0 0.00 0.00 0.00 41 1007.5
20260505012558 49 311 4.0 14.0 0.00 0.00 0.00 41 1007.4
20260505012058 50 300 5.0 16.0 0.00 0.00 0.00 41 1007.4
20260505011613 50 304 5.0 16.0 0.00 0.00 0.00 41 1007.4
20260505011055 50 331 6.0 13.0 0.00 0.00 0.00 41 1007.2
20260505010557 50 347 6.0 13.0 0.00 0.00 0.00 40 1007.0
20260505010107 50 329 7.0 15.0 0.00 0.00 0.00 40 1007.0
20260505005558 50 300 7.0 17.0 0.00 0.00 0.00 40 1007.0
20260505005101 51 304 9.0 17.0 0.00 0.00 0.00 40 1006.9
20260505004601 51 341 4.0 12.0 0.00 0.00 0.00 41 1006.9
20260505004058 51 311 3.0 14.0 0.00 0.00 0.00 41 1006.9
20260505003558 51 273 6.0 14.0 0.00 0.00 0.00 40 1006.9
20260505003056 51 318 4.0 14.0 0.00 0.00 0.00 39 1006.8
20260505002558 51 330 5.0 17.0 0.00 0.00 0.00 39 1006.8
20260505002101 52 303 7.0 17.0 0.00 0.00 0.00 39 1006.7
20260505001556 52 302 8.0 18.0 0.00 0.00 0.00 39 1006.7
20260505001057 52 295 8.0 18.0 0.00 0.00 0.00 38 1006.8
20260505000554 52 310 8.0 18.0 0.00 0.00 0.00 38 1006.8
20260505000107 52 329 6.0 17.0 0.00 0.00 0.00 39 1006.9
20260504235555 52 313 10.0 17.0 0.00 0.00 0.00 39 1006.9
20260504235055 52 311 8.0 22.0 0.00 0.00 0.00 39 1006.8
20260504234611 52 312 9.0 22.0 0.00 0.00 0.00 40 1006.8
20260504234102 52 284 6.0 17.0 0.00 0.00 0.00 40 1006.8
20260504233558 52 311 7.0 17.0 0.00 0.00 0.00 40 1006.6
20260504233059 52 268 9.0 17.0 0.00 0.00 0.00 40 1006.6
20260504232558 52 326 5.0 17.0 0.00 0.00 0.00 40 1006.8
20260504232101 52 302 7.0 18.0 0.00 0.00 0.00 39 1006.8
20260504231556 53 296 10.0 18.0 0.00 0.00 0.00 39 1006.8
20260504231058 53 313 7.0 18.0 0.00 0.00 0.00 39 1006.7
20260504230558 53 266 8.0 25.0 0.00 0.00 0.00 40 1006.9
20260504230057 53 317 10.0 25.0 0.00 0.00 0.00 39 1006.7
20260504225558 53 269 10.0 20.0 0.00 0.00 0.00 40 1006.6
20260504225057 53 288 7.0 18.0 0.00 0.00 0.00 41 1006.8
20260504224557 52 281 8.0 20.0 0.00 0.00 0.00 41 1006.7
20260504224100 52 327 10.0 20.0 0.00 0.00 0.00 42 1006.6
20260504223555 53 317 7.0 21.0 0.00 0.00 0.00 41 1006.7
20260504223057 53 281 12.0 22.0 0.00 0.00 0.00 40 1006.7
20260504222555 53 294 10.0 24.0 0.00 0.00 0.00 41 1006.4
20260504222101 53 339 11.0 24.0 0.00 0.00 0.00 41 1006.4
20260504221555 53 277 13.0 27.0 0.00 0.00 0.00 41 1006.5
20260504221058 53 288 12.0 27.0 0.00 0.00 0.00 40 1006.5
20260504220558 53 293 12.0 21.0 0.00 0.00 0.00 41 1006.4
20260504220104 53 313 13.0 21.0 0.00 0.00 0.00 41 1006.6
20260504215559 54 298 8.0 30.0 0.00 0.00 0.00 42 1006.5
20260504215057 54 286 10.0 30.0 0.00 0.00 0.00 42 1006.6
20260504214600 54 298 15.0 30.0 0.00 0.00 0.00 40 1006.4
20260504214058 54 341 12.0 29.0 0.00 0.00 0.00 41 1006.3
20260504213558 55 323 13.0 29.0 0.00 0.00 0.00 40 1006.3
20260504213111 55 312 10.0 24.0 0.00 0.00 0.00 42 1006.2
20260504212555 55 325 12.0 26.0 0.00 0.00 0.00 41 1006.1
20260504212055 56 252 14.0 26.0 0.00 0.00 0.00 40 1006.0
20260504211556 56 265 11.0 27.0 0.00 0.00 0.00 41 1006.0
20260504211054 56 273 13.0 27.0 0.00 0.00 0.00 40 1005.9
20260504210600 56 295 7.0 23.0 0.00 0.00 0.00 41 1005.8
20260504210104 56 309 12.0 24.0 0.00 0.00 0.00 40 1005.7
20260504205559 56 273 12.0 25.0 0.00 0.00 0.00 41 1005.6
20260504205059 56 288 12.0 25.0 0.00 0.00 0.00 42 1005.8
20260504204604 56 284 12.0 28.0 0.00 0.00 0.00 41 1005.7
20260504204100 56 240 13.0 28.0 0.00 0.00 0.00 39 1005.8
20260504203558 56 286 13.0 26.0 0.00 0.00 0.00 40 1005.6
20260504203058 56 301 9.0 20.0 0.00 0.00 0.00 40 1005.9
20260504202555 56 352 11.0 23.0 0.00 0.00 0.00 41 1005.7
20260504202057 56 273 9.0 25.0 0.00 0.00 0.00 43 1005.6
20260504201557 56 319 12.0 25.0 0.00 0.00 0.00 42 1005.6
20260504201055 56 304 9.0 25.0 0.00 0.00 0.00 42 1005.5
20260504200555 56 314 11.0 25.0 0.00 0.00 0.00 44 1005.6
20260504200059 56 321 11.0 24.0 0.00 0.00 0.00 42 1005.3
20260504195558 56 355 10.0 29.0 0.00 0.00 0.00 42 1005.4
20260504195058 56 23 12.0 29.0 0.00 0.00 0.00 43 1005.3
20260504194559 56 338 9.0 21.0 0.00 0.00 0.00 43 1005.3
20260504194058 56 305 10.0 25.0 0.00 0.00 0.00 43 1005.3
20260504193558 56 299 10.0 28.0 0.00 0.00 0.00 42 1005.3
20260504193114 57 307 10.0 31.0 0.00 0.00 0.00 43 1005.3
20260504192558 57 296 13.0 31.0 0.00 0.00 0.00 41 1005.1
20260504192100 57 290 10.0 25.0 0.00 0.00 0.00 41 1005.2
20260504191559 58 5 10.0 25.0 0.00 0.00 0.00 42 1005.1
20260504191058 58 282 8.0 22.0 0.00 0.00 0.00 43 1005.1
20260504190555 58 317 7.0 22.0 0.00 0.00 0.00 42 1004.9
20260504190107 58 292 12.0 27.0 0.00 0.00 0.00 41 1004.8
20260504185554 58 271 14.0 27.0 0.00 0.00 0.00 41 1004.8
20260504185054 58 292 12.0 23.0 0.00 0.00 0.00 44 1004.8
20260504184556 58 310 10.0 23.0 0.00 0.00 0.00 43 1004.8
20260504184101 58 313 13.0 23.0 0.00 0.00 0.00 42 1005.0
20260504183555 58 326 11.0 21.0 0.00 0.00 0.00 43 1005.0
20260504183102 58 311 12.0 23.0 0.00 0.00 0.00 42 1004.9
20260504182558 57 307 12.0 23.0 0.00 0.00 0.00 43 1004.9
20260504182058 57 285 11.0 23.0 0.00 0.00 0.00 41 1004.8
20260504181559 57 312 9.0 23.0 0.00 0.00 0.00 41 1004.8
20260504181058 57 321 10.0 23.0 0.00 0.00 0.00 40 1004.8
20260504180557 58 298 13.0 23.0 0.00 0.00 0.00 40 1004.7
20260504180138 58 317 10.0 19.0 0.00 0.00 0.00 39 1004.6
20260504175555 59 338 10.0 21.0 0.00 0.00 0.00 39 1004.4
20260504175055 59 319 10.0 25.0 0.00 0.00 0.00 38 1004.4
20260504174555 59 285 12.0 25.0 0.00 0.00 0.00 38 1004.4
20260504174055 59 323 11.0 23.0 0.00 0.00 0.00 39 1004.3
20260504173555 59 302 11.0 22.0 0.00 0.00 0.00 39 1004.2
20260504173055 59 317 8.0 20.0 0.00 0.00 0.00 38 1004.2
20260504172558 60 337 11.0 21.0 0.00 0.00 0.00 38 1004.0
20260504172058 60 309 10.0 21.0 0.00 0.00 0.00 38 1003.9
20260504171601 60 309 10.0 22.0 0.00 0.00 0.00 38 1003.9
20260504171058 60 334 11.0 22.0 0.00 0.00 0.00 39 1003.9
20260504170558 60 267 11.0 24.0 0.00 0.00 0.00 38 1003.9
20260504151059 57 305 10.0 19.0 0.00 0.00 0.00 47 1002.8
20260504150558 56 307 6.0 20.0 0.00 0.00 0.00 50 1002.6
20260504141057 56 297 6.0 17.0 0.00 0.00 0.00 49 1002.3
20260504140557 56 292 5.0 16.0 0.00 0.00 0.00 49 1002.2
20260504130559 51 345 3.0 8.0 0.00 0.00 0.00 69 1001.6
20260504120109 51 293 6.0 12.0 0.00 0.00 0.00 67 1000.8